{"data":{"norad_id":56323,"intl_designator":"2023-058G","name":"STARLINK-6035","alt_names":[],"object_type":"PAYLOAD","status":"ACTIVE","operator":null,"country":"US","launch_date":"2023-04-27","launch_site_code":"AFWTR","launch_vehicle":null,"mission":null,"orbit_class":"UNKNOWN","rcs_meters":null,"size_class":null,"mass_kg":null,"dimensions":null,"purposes":["comms"],"wikipedia_slug":null,"has_3d_model":false,"image_url":null,"decayed_at":null,"tle_current":{"epoch":"2026-09-20T22:00:03.000096Z","epoch_age_seconds":72633,"freshness":"FRESH","line1":"1 56323U 23058G   26263.91670139  .00082082  00000+0  39188-2 0  9992","line2":"2 56323  97.2879 257.8135 0002083  67.7680 126.4503 15.18701033  5781","mean_motion":15.18701033,"eccentricity":0.0002083,"inclination_deg":97.2879,"raan_deg":257.8135,"arg_perigee_deg":67.768,"mean_anomaly_deg":126.4503,"bstar":0.0039188,"rev_number":578,"period_min":94.817871899084,"perigee_km":508.33061486558,"apogee_km":511.20011499081,"semimajor_km":6887.9023649282,"source":"CELESTRAK","updated_at":"2026-09-21T09:00:33.401639Z"}}}